MSX

operational
NORAD ID: 23851 Int'l Des: 1996-024 Owner: BMDO Country: US
LEOCIRCULARRETROGRADESSO

Über MSX

Beschreibung wird geladen...

Live-Position

3D-Globus wird geladen...

Nächste Überflüge

Höhenverlauf

Altitude vs Time

uPlot chart will show altitude changes over time

Zweizeiliger Elementsatz

1 23851U 96024A 26071.28641573 -.00000229 00000-0 -12967-3 0 9995
2 23851 99.0350 9.7838 0008014 140.7303 219.4443 13.98381016524809
Epoch: 12. März 2026 • Age: 32 hours

Aktueller Status

Höhe 898.2 km
Geschwindigkeit 7.41 km/s
Subsatellitenpunkt -1.06°S, 96.98°W
Startdatum 24. Apr. 1996
Alter 29.8 years
Typ other

Technische Details

Klassifizierung Payload
Masse 2782.00 kg
Trockenmasse 2704.00 kg
Gesamtmasse 2782.00 kg
Länge 5.10 m
Durchmesser 1.80 m
Spannweite 5.10 m
Form Box + 2 Pan
Hersteller APL
Bus-Typ MSX
Phasenstatus In Orbit
Besitzer/Staat BMDO/US

Große Konstellationen

Loading constellations...